Weather History for San Diego, CA

Change the Weather History Date:

Thursday, November 8, 2012

  Actual Average Record
Temperature  
Mean Temperature 63 °F 63 °F  
Max Temperature 66 °F 71 °F 93 °F (1904)
Min Temperature 60 °F 56 °F 46 °F (1881)
Degree Days  
Heating Degree Days 2 3  
Month to date heating degree days 6 18  
Since 1 July heating degree days 10 39  
Cooling Degree Days 0 1  
Month to date cooling degree days 15 8  
Year to date cooling degree days 898 715  
Growing Degree Days 13 (Base 50)    
Moisture  
Dew Point 56 °F    
Average Humidity 76    
Maximum Humidity 84    
Minimum Humidity 68    
Precipitation  
Precipitation 0.09 in 0.03 in 0.52 in (1946)
Month to date precipitation 0.09 0.20  
Year to date precipitation 4.25 8.00  
Since 1 July precipitation 0.79 0.97  
Snow  
Snow 0.00 in - - ()
Month to date snowfall 0.0  
Year to date snowfall 0.0  
Since 1 July snowfall 0.0  
Snow Depth -    
Sea Level Pressure  
Sea Level Pressure 29.96 in    
Wind  
Wind Speed 7 mph (WSW)    
Max Wind Speed 12 mph    
Max Gust Speed -    
Visibility 9 miles    
Events Rain    
T = Trace of Precipitation, MM = Missing Value Source: NWS Daily Summary

Daily Weather History Graph

Daily Weather History Graph

Search for Another Location

Airport:

Trip Planner

Search our weather history database for the weather conditions in past years. The results will help you decide how hot, cold, wet, or windy it might be!

Date:

Astronomy

Nov. 08, 2012 Rise Set
Actual Time 6:13 AM PST 4:51 PM PST
Civil Twilight 5:47 AM PST 5:17 PM PST
Nautical Twilight 5:17 AM PST 5:46 PM PST
Astronomical Twilight 4:48 AM PST 6:15 PM PST
Moon 12:31 AM PST (11/8) 1:18 PM PST (11/8)
Length of Visible Light 11h 30m
Length of Day
10h 38m
Waning Crescent, 32% of the Moon is Illuminated
Nov 8
Waning Crescent
Nov 13
New
Nov 20
First Quarter
Nov 28
Full
Dec 6
Last Quarter

Hourly Weather History & Observations

Time (PST) Temp. Dew Point Humidity Pressure Visibility Wind Dir Wind Speed Gust Speed Precip Events Conditions
12:51 AM 63.0 °F 55.0 °F 75% 30.01 in 10.0 mi WSW 6.9 mph - N/A   Overcast
1:51 AM 63.0 °F 54.0 °F 72% 30.01 in 10.0 mi SW 6.9 mph - N/A   Overcast
2:51 AM 63.0 °F 54.0 °F 72% 30.02 in 10.0 mi WSW 5.8 mph - N/A   Overcast
3:51 AM 63.0 °F 54.0 °F 72% 30.04 in 10.0 mi NW 3.5 mph - 0.00 in Rain Light Rain
4:00 AM - - N/A% - - North - - N/A   Sand
4:37 AM 62.6 °F 55.4 °F 77% 30.03 in 7.0 mi NNE 6.9 mph - 0.00 in Rain Light Rain
4:51 AM 61.0 °F 55.0 °F 81% 30.04 in 5.0 mi North 4.6 mph - 0.05 in Rain Rain
5:51 AM 60.1 °F 55.9 °F 86% 30.02 in 10.0 mi East 3.5 mph - 0.04 in   Mostly Cloudy
6:51 AM 60.1 °F 55.9 °F 86% 29.98 in 9.0 mi East 4.6 mph - N/A   Mostly Cloudy
7:51 AM 62.1 °F 54.0 °F 75% 29.98 in 8.0 mi SSE 4.6 mph - N/A   Mostly Cloudy
8:51 AM 63.0 °F 55.9 °F 78% 29.98 in 7.0 mi South 8.1 mph - N/A   Mostly Cloudy
9:51 AM 64.9 °F 55.9 °F 73% 29.99 in 10.0 mi West 8.1 mph - N/A   Mostly Cloudy
10:51 AM 64.9 °F 55.0 °F 70% 29.99 in 10.0 mi NW 11.5 mph - N/A   Mostly Cloudy
11:40 AM 66.2 °F 55.4 °F 68% 29.98 in 10.0 mi WNW 11.5 mph - N/A   Mostly Cloudy
11:51 AM 64.9 °F 55.9 °F 73% 29.98 in 10.0 mi WNW 11.5 mph - N/A   Mostly Cloudy
12:51 PM 66.0 °F 55.0 °F 68% 29.96 in 10.0 mi NW 10.4 mph - N/A   Mostly Cloudy
1:51 PM 64.0 °F 57.0 °F 78% 29.93 in 10.0 mi SW 8.1 mph - 0.00 in   Overcast
2:45 PM 66.2 °F 55.4 °F 68% 29.93 in 10.0 mi WNW 9.2 mph - N/A   Mostly Cloudy
2:51 PM 66.0 °F 55.0 °F 68% 29.93 in 10.0 mi WNW 9.2 mph - N/A   Mostly Cloudy
3:51 PM 66.0 °F 55.9 °F 70% 29.93 in 10.0 mi West 8.1 mph - N/A   Mostly Cloudy
4:51 PM 64.9 °F 55.0 °F 70% 29.93 in 10.0 mi WSW 6.9 mph - N/A   Mostly Cloudy
4:54 PM 64.4 °F 55.4 °F 73% 29.93 in 10.0 mi WSW 8.1 mph - N/A   Mostly Cloudy
5:21 PM 64.4 °F 55.4 °F 73% 29.93 in 10.0 mi SW 9.2 mph - N/A   Mostly Cloudy
5:51 PM 64.0 °F 55.0 °F 73% 29.94 in 10.0 mi WSW 8.1 mph - N/A   Mostly Cloudy
6:51 PM 64.0 °F 57.0 °F 78% 29.93 in 10.0 mi SW 8.1 mph - 0.00 in   Overcast
7:00 PM 64.4 °F 57.2 °F 77% 29.93 in 10.0 mi SW 8.1 mph - N/A   Overcast
7:04 PM 64.0 °F 57.0 °F 78% 29.93 in 10.0 mi SW 8.1 mph - 0.00 in   Overcast
7:06 PM 64.0 °F 57.0 °F 78% 29.93 in 10.0 mi SW 8.1 mph - 0.00 in   Overcast
7:08 PM 64.0 °F 57.0 °F 78% 29.93 in 10.0 mi SW 8.1 mph - 0.00 in   Overcast
7:51 PM 63.0 °F 57.0 °F 81% 29.94 in 10.0 mi WSW 12.7 mph - N/A   Overcast
7:59 PM 62.6 °F 55.4 °F 77% 29.94 in 9.0 mi WSW 8.1 mph - 0.00 in Rain Light Rain
8:42 PM 64.4 °F 55.4 °F 73% 29.94 in 10.0 mi SW 5.8 mph - 0.00 in   Overcast
8:51 PM 64.0 °F 55.9 °F 75% 29.94 in 10.0 mi SW 9.2 mph - 0.00 in   Overcast
9:43 PM 62.6 °F 57.2 °F 82% 29.95 in 10.0 mi SW 10.4 mph - N/A   Overcast
9:51 PM 62.6 °F 57.2 °F 82% 29.95 in 10.0 mi SW 11.5 mph - N/A   Overcast
10:34 PM 60.8 °F 57.2 °F 88% 29.95 in 10.5 mi WSW 13.8 mph - 0.02 in Rain Heavy Rain
10:43 PM 60.8 °F 57.2 °F 88% 29.96 in 3.0 mi West 10.4 mph - 0.03 in Rain Light Rain
10:51 PM 60.1 °F 57.0 °F 90% 29.96 in 3.0 mi West 8.1 mph - 0.04 in Rain Light Rain
11:51 PM 62.1 °F 55.0 °F 78% 29.95 in 10.0 mi West 10.4 mph - 0.01 in   Mostly Cloudy